Stations météo

réclame
Mon MeteoGroup
Cozzo Spadaro, Italie (16480): Température de l'air & dewpoint: 16.02.2018 04:00:00 - 22.02.2018 04:00:00 (CET)Cozzo Spadaro, Italie (16480): Vitesse du vent: 16.02.2018 04:00:00 - 22.02.2018 04:00:00 (CET)Cozzo Spadaro, Italie (16480): Direction du vent: 16.02.2018 04:00:00 - 22.02.2018 04:00:00 (CET)Cozzo Spadaro, Italie (16480): reduced air pressure: 16.02.2018 04:00:00 - 22.02.2018 04:00:00 (CET)Cozzo Spadaro, Italie (16480): visibility: 16.02.2018 04:00:00 - 22.02.2018 04:00:00 (CET)Cozzo Spadaro, Italie (16480): Ensoleillement: 16.02.2018 04:00:00 - 22.02.2018 04:00:00 (CET)
Date & Time tt [°C] td [°C] ff [km/h] ff [knt] dd ppp [hPa] vv [km] sd [min]
22.02.2018 04:00:00 - - - - - - - -
22.02.2018 03:00:00 - - - - - - - -
22.02.2018 02:00:00 - - - - - - - -
22.02.2018 01:00:00 - - - - - - - -
22.02.2018 00:00:00 - - - - - - - -
21.02.2018 23:00:00 - - - - - - - -
21.02.2018 22:00:00 - - - - - - - -
21.02.2018 21:00:00 - - - - - - - -
21.02.2018 20:00:00 - - - - - - - -
21.02.2018 19:00:00 12,0 9,0 11 6 WNW 1000,1 20 -
21.02.2018 18:00:00 12,8 9,4 13 7 W 999,1 25 18
21.02.2018 17:00:00 13,4 9,5 16 9 W 999,0 25 60
21.02.2018 16:00:00 13,8 8,8 18 10 W 998,8 20 60
21.02.2018 15:00:00 13,8 8,4 21 11 WNW 998,9 25 60
21.02.2018 14:00:00 13,8 8,0 21 11 W 998,9 25 60
21.02.2018 13:00:00 13,6 8,0 18 10 W 999,0 25 60
21.02.2018 12:00:00 13,2 8,9 18 10 WNW 999,0 25 60
21.02.2018 11:00:00 12,4 9,0 16 9 W 998,4 25 60
21.02.2018 10:00:00 11,6 9,5 8 4 W 998,2 25 18
21.02.2018 09:00:00 10,0 8,1 4 2 W 998,1 20 0
21.02.2018 08:00:00 9,4 7,8 2 1 NNW 997,6 20 18
21.02.2018 07:00:00 9,4 8,0 8 4 NW 998,1 20 0
21.02.2018 06:00:00 - - - - - - - -
21.02.2018 05:00:00 - - - - - - - -
21.02.2018 04:00:00 - - - - - - - -
21.02.2018 03:00:00 - - - - - - - -
21.02.2018 02:00:00 - - - - - - - -
21.02.2018 01:00:00 - - - - - - - -
21.02.2018 00:00:00 - - - - - - - -
20.02.2018 23:00:00 - - - - - - - -
20.02.2018 22:00:00 - - - - - - - -
20.02.2018 21:00:00 - - - - - - - -
20.02.2018 20:00:00 - - - - - - - -
20.02.2018 19:00:00 12,8 10,4 8 4 WNW 1004,1 18 -
20.02.2018 18:00:00 13,0 10,0 8 4 WNW 1004,1 15 0
20.02.2018 17:00:00 13,4 10,2 11 6 W 1004,1 20 0
20.02.2018 16:00:00 13,8 10,8 15 8 W 1005,0 20 0
20.02.2018 15:00:00 14,4 10,8 15 8 W 1005,1 25 12
20.02.2018 14:00:00 14,8 11,6 18 10 WNW 1006,1 25 30
20.02.2018 13:00:00 15,0 11,0 18 10 W 1006,2 20 54
20.02.2018 12:00:00 15,0 10,2 18 10 WNW 1007,4 20 60
20.02.2018 11:00:00 14,0 9,7 15 8 W 1008,0 20 60
20.02.2018 10:00:00 13,4 9,3 15 8 WNW 1008,1 25 60
20.02.2018 09:00:00 12,0 9,4 11 6 WNW 1008,2 20 60
20.02.2018 08:00:00 10,8 8,5 11 6 WNW 1008,1 20 36
20.02.2018 07:00:00 9,8 8,1 9 5 WNW 1007,6 20 0
20.02.2018 06:00:00 - - - - - - - -
20.02.2018 05:00:00 - - - - - - - -
20.02.2018 04:00:00 - - - - - - - -
20.02.2018 03:00:00 - - - - - - - -
20.02.2018 02:00:00 - - - - - - - -
20.02.2018 01:00:00 - - - - - - - -
20.02.2018 00:00:00 - - - - - - - -
19.02.2018 23:00:00 - - - - - - - -
19.02.2018 22:00:00 - - - - - - - -
19.02.2018 21:00:00 - - - - - - - -
19.02.2018 20:00:00 - - - - - - - -
19.02.2018 19:00:00 13,0 10,7 5 3 W 1009,8 20 -
19.02.2018 18:00:00 13,8 11,1 9 5 WNW 1009,5 20 60
19.02.2018 17:00:00 14,8 10,8 16 9 WNW 1009,5 20 60
19.02.2018 16:00:00 15,6 10,8 21 11 W 1009,6 20 60
19.02.2018 15:00:00 15,6 10,6 18 10 W 1010,0 20 60
19.02.2018 14:00:00 15,8 11,0 21 11 W 1010,1 20 60
19.02.2018 13:00:00 15,0 12,9 16 9 W 1010,7 20 60
19.02.2018 12:00:00 14,8 12,7 11 6 W 1011,1 15 36
19.02.2018 11:00:00 14,0 12,4 9 5 W 1011,1 15 0
19.02.2018 10:00:00 13,2 11,6 2 1 WSW 1011,1 15 0
19.02.2018 09:00:00 12,6 11,0 2 1 WSW 1011,2 15 0
19.02.2018 08:00:00 11,8 10,2 2 1 NNW 1011,2 15 0
19.02.2018 07:00:00 11,8 10,0 2 1 NW 1011,1 15 0
19.02.2018 06:00:00 - - - - - - - -
19.02.2018 05:00:00 - - - - - - - -
19.02.2018 04:00:00 - - - - - - - -
19.02.2018 03:00:00 - - - - - - - -
19.02.2018 02:00:00 - - - - - - - -
19.02.2018 01:00:00 - - - - - - - -
19.02.2018 00:00:00 - - - - - - - -
18.02.2018 23:00:00 - - - - - - - -
18.02.2018 22:00:00 - - - - - - - -
18.02.2018 21:00:00 - - - - - - - -
18.02.2018 20:00:00 - - - - - - - -
18.02.2018 19:00:00 - - - - - - - -
18.02.2018 18:00:00 - - - - - - - -
18.02.2018 17:00:00 - - - - - - - -
18.02.2018 16:00:00 - - - - - - - -
18.02.2018 15:00:00 - - - - - - - -
18.02.2018 14:00:00 - - - - - - - -
18.02.2018 13:00:00 - - - - - - - -
18.02.2018 12:00:00 - - - - - - - -
18.02.2018 11:00:00 - - - - - - - -
18.02.2018 10:00:00 - - - - - - - -
18.02.2018 09:00:00 - - - - - - - -
18.02.2018 08:00:00 - - - - - - - -
18.02.2018 07:00:00 - - - - - - - -
18.02.2018 06:00:00 - - - - - - - -
18.02.2018 05:00:00 - - - - - - - -
18.02.2018 04:00:00 - - - - - - - -
18.02.2018 03:00:00 - - - - - - - -
18.02.2018 02:00:00 - - - - - - - -
18.02.2018 01:00:00 - - - - - - - -
18.02.2018 00:00:00 - - - - - - - -
17.02.2018 23:00:00 - - - - - - - -
17.02.2018 22:00:00 - - - - - - - -
17.02.2018 21:00:00 - - - - - - - -
17.02.2018 20:00:00 - - - - - - - -
17.02.2018 19:00:00 13,2 10,2 9 5 SW 1021,0 18 0
17.02.2018 18:00:00 13,4 10,0 9 5 SW 1020,7 20 0
17.02.2018 17:00:00 14,0 10,0 9 5 SW 1021,1 20 24
17.02.2018 16:00:00 14,0 9,8 9 5 SW 1021,0 20 24
17.02.2018 15:00:00 14,0 9,8 11 6 SW 1021,2 20 0
17.02.2018 14:00:00 14,0 9,7 11 6 SW 1021,6 20 12
17.02.2018 13:00:00 14,0 9,4 9 5 SW 1022,2 20 30
17.02.2018 12:00:00 14,0 9,4 9 5 SW 1023,0 25 60
17.02.2018 11:00:00 14,0 9,8 5 3 SSE 1023,1 25 60
17.02.2018 10:00:00 13,0 9,6 4 2 E 1023,2 25 60
17.02.2018 09:00:00 12,2 9,2 4 2 NNE 1023,3 25 60
17.02.2018 08:00:00 9,8 7,4 4 2 NNW 1023,4 25 42
17.02.2018 07:00:00 9,4 7,4 4 2 NW 1023,3 20 0
17.02.2018 06:00:00 - - - - - - - -
17.02.2018 05:00:00 - - - - - - - -
17.02.2018 04:00:00 - - - - - - - -
17.02.2018 03:00:00 - - - - - - - -
17.02.2018 02:00:00 - - - - - - - -
17.02.2018 01:00:00 - - - - - - - -
17.02.2018 00:00:00 - - - - - - - -
16.02.2018 23:00:00 - - - - - - - -
16.02.2018 22:00:00 - - - - - - - -
16.02.2018 21:00:00 - - - - - - - -
16.02.2018 20:00:00 - - - - - - - -
16.02.2018 19:00:00 11,4 8,1 8 4 NW 1023,3 20 -
16.02.2018 18:00:00 12,2 7,7 4 2 W 1022,5 25 0
16.02.2018 17:00:00 13,2 8,1 4 2 E 1022,3 25 60
16.02.2018 16:00:00 13,6 8,4 8 4 E 1022,2 20 60
16.02.2018 15:00:00 13,8 8,2 13 7 E 1022,2 25 60
16.02.2018 14:00:00 13,8 8,0 18 10 NE 1022,2 25 60
16.02.2018 13:00:00 13,2 7,4 15 8 NNE 1022,8 25 60
16.02.2018 12:00:00 13,0 7,2 9 5 NE 1022,9 25 60
16.02.2018 11:00:00 12,8 6,6 9 5 ENE 1022,4 25 60
16.02.2018 10:00:00 12,2 6,3 5 3 NNE 1022,2 20 60
16.02.2018 09:00:00 10,0 3,7 5 3 N 1022,1 25 60
16.02.2018 08:00:00 8,4 2,4 8 4 N 1021,8 25 42
16.02.2018 07:00:00 7,4 1,9 8 4 NNW 1021,4 20 0
16.02.2018 06:00:00 - - - - - - - -
16.02.2018 05:00:00 - - - - - - - -
16.02.2018 04:00:00 - - - - - - - -

tt = Température de l'air
td = dewpoint
ff = Vitesse du vent
dd = Direction du vent
ppp = reduced air pressure
vv = visibility
sd = Ensoleillement

stations d'obs. à proximité